TimeEDT,TemperatureF,Dew PointF,Humidity,Sea Level PressureIn,VisibilityMPH,Wind Direction,Wind SpeedMPH,Gust SpeedMPH,PrecipitationIn,Events,Conditions,WindDirDegrees,DateUTC
12:51 AM,23.0,-5.8,28,-9999,120.0,WNW,47.2,-,N/A,,Clear,300,2012-10-17 04:51:00
1:53 AM,23.0,-5.8,28,-9999,120.0,WNW,49.5,-,N/A,,Partly Cloudy,300,2012-10-17 05:53:00
2:57 AM,24.8,-9.4,22,-9999,120.0,WNW,41.4,-,N/A,,Partly Cloudy,300,2012-10-17 06:57:00
3:53 AM,26.6,-22.0,11,-9999,120.0,WNW,39.1,-,N/A,,Partly Cloudy,300,2012-10-17 07:53:00
4:57 AM,24.8,-18.4,14,-9999,120.0,WNW,44.9,-,N/A,,Partly Cloudy,300,2012-10-17 08:57:00
5:56 AM,24.8,-7.6,24,-9999,120.0,WNW,47.2,-,N/A,,Partly Cloudy,300,2012-10-17 09:56:00
6:55 AM,26.6,-9.4,21,-9999,120.0,WNW,48.3,-,N/A,,Partly Cloudy,300,2012-10-17 10:55:00
7:54 AM,26.6,-7.6,22,-9999,120.0,WNW,41.4,-,N/A,,Scattered Clouds,300,2012-10-17 11:54:00
8:54 AM,32.0,-2.2,23,-9999,120.0,NW,34.5,-,N/A,,Scattered Clouds,310,2012-10-17 12:54:00
9:50 AM,33.8,10.4,38,-9999,105.0,NW,39.1,-,N/A,,Mostly Cloudy,310,2012-10-17 13:50:00
10:58 AM,32.0,12.2,44,-9999,105.0,NW,33.4,-,N/A,,Scattered Clouds,320,2012-10-17 14:58:00
11:58 AM,33.8,15.8,48,-9999,115.0,NW,28.8,-,N/A,,Scattered Clouds,310,2012-10-17 15:58:00
12:50 PM,33.8,15.8,48,-9999,105.0,NW,26.5,-,N/A,,Scattered Clouds,310,2012-10-17 16:50:00
1:48 PM,35.6,17.6,48,-9999,105.0,NW,26.5,-,N/A,,Scattered Clouds,310,2012-10-17 17:48:00
2:50 PM,35.6,19.4,52,-9999,110.0,NW,23.0,-,N/A,,Scattered Clouds,310,2012-10-17 18:50:00
3:52 PM,37.4,26.6,65,-9999,110.0,NW,24.2,-,N/A,,Scattered Clouds,310,2012-10-17 19:52:00
4:54 PM,37.4,28.4,70,-9999,110.0,WNW,19.6,-,N/A,,Partly Cloudy,300,2012-10-17 20:54:00
5:53 PM,37.4,28.4,70,-9999,110.0,WNW,20.7,-,N/A,,Partly Cloudy,300,2012-10-17 21:53:00
6:52 PM,37.4,32.0,81,-9999,105.0,WNW,20.7,-,N/A,,Partly Cloudy,300,2012-10-17 22:52:00
7:52 PM,37.4,32.0,81,-9999,115.0,WNW,21.9,-,N/A,,Partly Cloudy,290,2012-10-17 23:52:00
8:49 PM,39.2,32.0,75,-9999,120.0,WNW,18.4,-,N/A,,Scattered Clouds,290,2012-10-18 00:49:00
9:50 PM,39.2,32.0,75,-9999,120.0,WNW,21.9,-,N/A,,Mostly Cloudy,290,2012-10-18 01:50:00
10:53 PM,37.4,33.8,87,-9999,120.0,WNW,19.6,-,N/A,,Overcast,290,2012-10-18 02:53:00
11:50 PM,41.0,33.8,76,-9999,120.0,West,16.1,-,N/A,,Overcast,280,2012-10-18 03:50:00